Total_Precipitation_Accumulation
3.37 3.49 3.49 3.52 3.31 3.26 3.20 3.10 2.98 3.09 2.98 2.72 2.40 2.34 2.37 2.31 2.44 2.69 2.82 3.06 3.11 3.45 4.00 4.31 4.31 4.31 4.53 4.64 4.40 4.20 4.01 3.88 3.76 3.38 3.05 2.90 2.73 2.61 2.39 2.30 2.25 2.19 2.21
3.66 3.76 3.72 3.72 3.63 3.49 3.52 3.36 3.17 3.38 3.30 3.17 2.92 2.77 2.65 2.71 2.70 2.76 2.97 3.24 3.23 3.22 3.57 3.98 4.25 4.46 4.77 4.86 4.64 4.19 3.92 3.94 4.07 3.85 3.50 3.19 2.92 2.83 2.73 2.59 2.42 2.27 2.21
3.68 3.87 4.02 3.94 3.96 3.84 3.80 3.75 3.71 3.81 3.52 3.35 3.17 3.01 2.97 3.08 3.01 2.92 3.10 3.34 3.33 3.42 3.42 3.46 3.68 3.94 4.37 4.69 4.77 4.57 4.18 3.94 4.02 4.06 3.88 3.56 3.21 3.02 2.90 2.80 2.74 2.63 2.51
3.66 4.04 4.16 4.17 4.28 4.19 4.26 4.34 4.24 4.14 4.03 3.76 3.55 3.17 3.04 3.18 3.16 3.17 3.26 3.35 3.58 3.49 3.47 3.32 3.37 3.42 3.75 4.29 4.51 4.74 4.73 4.55 4.27 4.08 4.00 3.77 3.53 3.29 3.07 2.86 2.79 2.82 2.75
4.21 4.41 4.49 4.58 4.65 4.71 4.77 4.54 4.74 4.53 4.45 4.28 3.82 3.54 3.24 3.11 3.10 3.04 3.19 3.16 3.33 3.42 3.51 3.44 3.38 3.33 3.54 4.14 4.46 4.77 4.95 4.96 4.80 4.41 4.15 3.94 3.81 3.63 3.39 3.18 3.00 2.87 2.82
4.94 5.11 5.01 5.10 5.16 5.25 5.14 5.12 5.27 5.05 4.73 4.70 4.19 3.96 3.60 3.25 3.20 3.17 3.14 3.28 3.20 3.02 3.24 3.44 3.57 3.33 3.53 3.79 4.12 4.55 4.80 4.98 4.97 4.71 4.57 4.41 4.15 3.87 3.49 3.19 2.98 2.86 2.82
5.92 6.01 5.73 5.81 5.74 5.61 5.39 5.38 5.33 5.11 4.84 4.81 4.70 4.24 3.52 3.08 3.03 2.94 2.92 3.14 3.13 3.07 3.19 3.31 3.36 3.23 3.09 3.23 3.38 3.82 4.38 4.81 5.13 5.00 4.78 4.55 4.20 3.94 3.67 3.39 3.16 3.00 2.83
6.81 6.86 6.86 6.61 6.45 6.22 5.73 5.38 5.28 5.06 4.68 4.78 4.81 4.81 4.08 3.55 3.00 2.53 2.61 2.65 2.75 2.98 2.89 2.84 3.00 3.14 2.98 2.99 2.81 3.02 3.39 3.92 4.55 4.89 4.88 4.58 4.31 4.10 3.91 3.71 3.50 3.32 3.08
6.83 7.08 7.18 6.95 6.61 6.07 5.51 5.41 5.39 5.22 4.96 4.83 4.71 4.97 4.41 3.84 3.33 2.74 2.43 2.37 2.50 2.58 2.58 2.60 2.61 2.72 2.70 2.79 2.73 2.73 2.88 3.13 3.74 4.32 4.49 4.23 4.04 3.91 3.85 3.75 3.70 3.57 3.41
6.64 6.58 6.50 6.16 5.82 5.46 5.18 5.05 5.16 5.07 5.02 4.76 4.64 4.31 4.05 3.74 3.50 3.04 2.53 2.29 2.37 2.39 2.36 2.30 2.30 2.53 2.63 2.69 2.74 2.64 2.53 2.64 3.08 3.59 3.90 3.92 3.79 3.71 3.73 3.69 3.65 3.69 3.72
5.86 5.42 5.12 4.97 4.93 4.77 4.59 4.49 4.58 4.52 4.25 4.09 4.08 4.06 3.99 3.70 3.32 3.09 2.78 2.53 2.47 2.24 2.21 2.31 2.41 2.55 2.70 2.73 2.77 2.69 2.57 2.37 2.50 2.80 3.11 3.34 3.54 3.60 3.66 3.81 3.87 3.87 3.89
5.01 4.46 4.24 4.14 4.05 3.89 3.70 3.60 3.64 3.67 3.70 3.74 3.80 3.79 3.75 3.68 3.41 3.37 3.15 2.84 2.69 2.46 2.35 2.35 2.42 2.60 2.81 2.92 2.83 3.03 2.63 2.34 2.30 2.44 2.60 2.75 3.01 3.19 3.31 3.48 3.72 3.85 3.96
4.48 4.01 3.62 3.46 3.20 3.04 2.98 3.06 3.06 3.03 3.15 3.25 3.34 3.44 3.46 3.35 3.21 3.28 3.38 3.12 2.82 2.60 2.54 2.44 2.42 2.56 2.63 2.90 3.17 3.26 2.75 2.48 2.30 2.23 2.30 2.40 2.57 2.75 2.80 2.85 3.10 3.37 3.61
3.86 3.60 3.19 2.86 2.63 2.49 2.41 2.60 2.64 2.64 2.73 2.83 2.88 3.14 3.10 2.98 3.07 3.16 3.31 3.46 3.35 2.96 2.66 2.49 2.42 2.46 2.48 2.55 2.86 3.01 2.60 2.56 2.29 2.14 2.12 2.21 2.34 2.52 2.57 2.58 2.78 2.98 3.09
2.99 2.85 2.65 2.50 2.38 2.31 2.33 2.42 2.40 2.44 2.58 2.64 2.67 2.80 2.91 2.88 2.94 2.96 3.06 3.21 3.36 3.16 2.83 2.57 2.44 2.40 2.43 2.49 2.71 2.33 2.27 2.49 2.31 2.17 2.06 2.00 2.02 2.20 2.29 2.26 2.25 2.33 2.40
2.33 2.32 2.27 2.29 2.25 2.18 2.24 2.33 2.21 2.24 2.35 2.35 2.36 2.46 2.55 2.56 2.70 2.73 2.82 2.95 3.06 3.03 2.85 2.50 2.43 2.40 2.35 2.17 2.39 2.08 2.13 2.31 2.13 2.02 1.95 1.96 1.92 1.93 1.99 2.04 2.04 2.03 2.02
2.02 2.01 2.04 2.08 2.11 2.11 2.16 2.12 1.96 1.99 2.05 2.22 2.33 2.37 2.40 2.45 2.55 2.51 2.54 2.58 2.69 2.88 2.96 2.74 2.55 2.48 2.48 2.37 2.22 2.00 1.87 1.87 1.81 1.91 1.88 1.86 1.81 1.80 1.84 1.84 1.79 1.75 1.72
1.90 1.91 1.93 1.90 1.94 2.08 2.17 2.08 1.93 1.88 2.00 2.14 2.26 2.38 2.33 2.28 2.31 2.35 2.43 2.43 2.44 2.61 2.77 2.70 2.55 2.41 2.40 2.38 2.30 2.20 1.82 1.64 1.61 1.67 1.62 1.58 1.60 1.62 1.60 1.63 1.62 1.58 1.54
1.91 1.88 1.84 1.85 1.89 1.96 2.00 1.91 1.84 1.80 1.84 1.93 2.03 2.08 2.11 2.13 2.05 2.04 2.09 2.17 2.18 2.21 2.46 2.48 2.38 2.30 2.22 2.18 2.26 2.18 1.96 1.95 1.55 1.49 1.43 1.37 1.35 1.36 1.35 1.34 1.38 1.44 1.45
1.85 1.87 1.87 1.88 1.85 1.77 1.65 1.58 1.57 1.60 1.65 1.64 1.69 1.71 1.79 1.92 1.94 1.94 1.88 1.98 2.08 2.23 2.31 2.35 2.23 2.16 2.16 2.04 2.14 2.12 2.07 1.94 1.71 1.43 1.44 1.29 1.22 1.17 1.16 1.17 1.16 1.18 1.23
1.64 1.72 1.78 1.71 1.59 1.45 1.27 1.30 1.37 1.38 1.48 1.49 1.49 1.41 1.41 1.64 1.79 1.75 1.58 1.76 2.00 2.18 2.24 2.25 2.12 2.00 1.92 2.03 2.00 1.92 1.97 1.97 1.86 1.66 1.65 1.44 1.32 1.24 1.25 1.25 1.19 1.14 1.16
1.82 1.74 1.72 1.65 1.50 1.22 1.24 1.21 1.31 1.42 1.52 1.48 1.50 1.49 1.37 1.41 1.49 1.44 1.36 1.50 1.78 1.89 2.01 2.16 2.13 2.01 1.91 1.93 1.99 1.97 2.03 2.11 2.06 1.79 1.83 1.66 1.51 1.50 1.38 1.29 1.27 1.18 1.14
1.90 1.81 1.67 1.63 1.59 1.49 1.36 1.16 1.18 1.32 1.42 1.42 1.44 1.47 1.28 1.19 1.38 1.40 1.41 1.38 1.44 1.48 1.61 1.96 2.17 2.02 1.99 2.04 2.19 2.13 2.23 2.23 2.06 1.94 2.10 2.00 1.69 1.56 1.26 1.18 1.26 1.14 1.12
1.87 1.81 1.72 1.61 1.50 1.26 1.12 1.00 1.03 1.14 1.35 1.37 1.34 1.40 1.46 1.36 1.29 1.35 1.35 1.35 1.39 1.42 1.39 1.46 1.74 1.86 1.91 2.06 2.21 2.28 2.41 2.33 2.18 2.09 2.21 2.25 1.86 1.69 1.39 1.38 1.32 1.14 1.09
1.83 1.71 1.62 1.56 1.49 1.30 1.09 0.96 1.03 1.16 1.34 1.35 1.31 1.30 1.38 1.38 1.37 1.33 1.36 1.48 1.52 1.50 1.29 1.30 1.38 1.54 1.64 1.80 1.94 2.09 2.34 2.53 2.34 2.06 2.07 2.25 1.97 1.83 1.67 1.54 1.36 1.27 1.16
1.76 1.66 1.51 1.47 1.44 1.41 1.29 1.11 1.11 1.15 1.28 1.33 1.40 1.37 1.31 1.31 1.34 1.29 1.40 1.59 1.59 1.54 1.42 1.37 1.48 1.59 1.59 1.71 1.83 1.97 2.29 2.42 2.28 2.16 1.93 2.06 2.01 2.09 2.06 1.67 1.48 1.42 1.34